DIUSA EDDH-EDNY

Flight info

Callsign DIUSA
Flight time 1h 44m
Altitude 24000
Route IDEKO7G IDEKO N850 INKAM T725 LAMGO T721 SUL Z714 LEBSO N851 LOKTA T122 ARFAS
Aircraft BE60/L-SDFGRY/C

Departure

Time 2026-04-21 18:08
Airport Hamburg Helmut Schmidt Airport (EDDH)

Arrival

Time 2026-04-21 19:52
Airport Bodensee Airport Friedrichshafen (EDNY)
Time Latitude Longitude Altitude Speed Heading
2026-04-21 17:40 53.62561 9.99557 41 ft 0 kts 190°
2026-04-21 18:03 53.62553 9.99552 41 ft 6 kts 212°
2026-04-21 18:03 53.62534 9.99417 41 ft 17 kts 267°
2026-04-21 18:03 53.62588 9.99339 41 ft 11 kts 36°
2026-04-21 18:04 53.62606 9.99473 41 ft 13 kts 79°
2026-04-21 18:04 53.62633 9.99607 41 ft 12 kts 31°
2026-04-21 18:04 53.62726 9.99558 41 ft 16 kts 332°
2026-04-21 18:04 53.62831 9.99467 41 ft 17 kts 334°
2026-04-21 18:05 53.62942 9.99371 41 ft 18 kts 330°
2026-04-21 18:05 53.63043 9.99290 41 ft 13 kts 347°
2026-04-21 18:05 53.63114 9.99304 41 ft 10 kts 13°
2026-04-21 18:05 53.63190 9.99337 41 ft 13 kts 14°
2026-04-21 18:06 53.63287 9.99357 41 ft 15 kts 355°
2026-04-21 18:06 53.63380 9.99302 41 ft 12 kts 333°
2026-04-21 18:06 53.63395 9.99289 41 ft 0 kts 334°
2026-04-21 18:07 53.63684 9.99037 42 ft 87 kts 334°
2026-04-21 18:07 53.64317 9.98477 301 ft 113 kts 341°
2026-04-21 18:08 53.65062 9.97908 857 ft 118 kts 340°
2026-04-21 18:08 53.65808 9.97211 1321 ft 134 kts 338°
2026-04-21 18:08 53.66667 9.96450 1780 ft 144 kts 340°
2026-04-21 18:08 53.67592 9.95695 2294 ft 151 kts 339°
2026-04-21 18:09 53.68550 9.94875 2836 ft 154 kts 339°
2026-04-21 18:09 53.69513 9.94054 3361 ft 156 kts 338°
2026-04-21 18:09 53.70157 9.93500 3715 ft 157 kts 338°
2026-04-21 18:09 53.71217 9.91827 4463 ft 165 kts 300°
2026-04-21 18:10 53.71478 9.89912 5025 ft 170 kts 268°
2026-04-21 18:10 53.71021 9.88115 5553 ft 170 kts 220°
2026-04-21 18:10 53.70011 9.87281 6119 ft 163 kts 192°
2026-04-21 18:10 53.68933 9.86692 6705 ft 163 kts 194°
2026-04-21 18:11 53.67846 9.86045 7256 ft 164 kts 195°
2026-04-21 18:11 53.66782 9.85402 7796 ft 165 kts 195°
2026-04-21 18:11 53.65709 9.84749 8338 ft 161 kts 195°
2026-04-21 18:11 53.64672 9.84116 8777 ft 156 kts 194°
2026-04-21 18:12 53.63659 9.83501 9191 ft 154 kts 194°
2026-04-21 18:12 53.62650 9.82890 9598 ft 154 kts 194°
2026-04-21 18:12 53.61646 9.82280 9999 ft 154 kts 194°
2026-04-21 18:12 53.60641 9.81671 10389 ft 154 kts 194°
2026-04-21 18:13 53.59633 9.81059 10751 ft 154 kts 194°
2026-04-21 18:13 53.58628 9.80450 11120 ft 154 kts 193°
2026-04-21 18:13 53.57619 9.79839 11497 ft 154 kts 193°
2026-04-21 18:13 53.56610 9.79227 11862 ft 155 kts 193°
2026-04-21 18:14 53.54907 9.78196 12477 ft 156 kts 192°
2026-04-21 18:14 53.53887 9.77579 12853 ft 156 kts 192°
2026-04-21 18:14 53.52878 9.76968 13224 ft 157 kts 192°
2026-04-21 18:15 53.51846 9.76345 13612 ft 157 kts 192°
2026-04-21 18:15 53.50817 9.75723 13994 ft 158 kts 192°
2026-04-21 18:15 53.49784 9.75099 14351 ft 158 kts 191°
2026-04-21 18:15 53.48738 9.74468 14672 ft 160 kts 191°
2026-04-21 18:16 53.47681 9.73831 15004 ft 162 kts 191°
2026-04-21 18:16 53.46619 9.73190 15339 ft 163 kts 191°
2026-04-21 18:16 53.45552 9.72547 15696 ft 163 kts 191°
2026-04-21 18:16 53.44491 9.71905 16038 ft 161 kts 191°
2026-04-21 18:17 53.43433 9.71270 16331 ft 161 kts 190°
2026-04-21 18:17 53.42375 9.70634 16627 ft 161 kts 190°
2026-04-21 18:17 53.41321 9.70000 16923 ft 161 kts 190°
2026-04-21 18:17 53.40260 9.69362 17216 ft 162 kts 190°
2026-04-21 18:18 53.39196 9.68724 17511 ft 162 kts 189°
2026-04-21 18:18 53.38135 9.68086 17825 ft 163 kts 189°
2026-04-21 18:18 53.37069 9.67446 18127 ft 163 kts 189°
2026-04-21 18:18 53.36002 9.66806 18429 ft 163 kts 189°
2026-04-21 18:19 53.34933 9.66166 18731 ft 163 kts 189°
2026-04-21 18:19 53.33858 9.65523 18966 ft 165 kts 189°
2026-04-21 18:19 53.32783 9.64879 19205 ft 167 kts 189°
2026-04-21 18:19 53.31688 9.64223 19457 ft 168 kts 189°
2026-04-21 18:20 53.30585 9.63564 19706 ft 169 kts 189°
2026-04-21 18:20 53.29477 9.62901 19960 ft 170 kts 188°
2026-04-21 18:20 53.28364 9.62235 20216 ft 170 kts 188°
2026-04-21 18:20 53.27245 9.61568 20474 ft 171 kts 188°
2026-04-21 18:21 53.26129 9.60901 20729 ft 171 kts 188°
2026-04-21 18:21 53.25005 9.60230 20984 ft 171 kts 188°
2026-04-21 18:21 53.23883 9.59561 21240 ft 171 kts 187°
2026-04-21 18:21 53.22760 9.58892 21484 ft 171 kts 187°
2026-04-21 18:22 53.21641 9.58225 21724 ft 171 kts 187°
2026-04-21 18:22 53.20523 9.57560 21953 ft 171 kts 187°
2026-04-21 18:22 53.19399 9.56893 22155 ft 172 kts 187°
2026-04-21 18:22 53.18267 9.56219 22368 ft 173 kts 187°
2026-04-21 18:23 53.17128 9.55544 22585 ft 174 kts 187°
2026-04-21 18:23 53.15984 9.54863 22798 ft 175 kts 187°
2026-04-21 18:23 53.14839 9.54183 23011 ft 174 kts 186°
2026-04-21 18:23 53.13699 9.53508 23213 ft 173 kts 186°
2026-04-21 18:24 53.12558 9.52828 23415 ft 175 kts 186°
2026-04-21 18:24 53.11408 9.52146 23627 ft 176 kts 186°
2026-04-21 18:24 53.10253 9.51466 23846 ft 177 kts 186°
2026-04-21 18:24 53.09085 9.50777 23979 ft 182 kts 186°
2026-04-21 18:25 53.07851 9.50057 23994 ft 195 kts 187°
2026-04-21 18:25 53.06537 9.49281 23996 ft 206 kts 188°
2026-04-21 18:25 53.05150 9.48457 23996 ft 216 kts 189°
2026-04-21 18:25 53.03702 9.47615 23993 ft 224 kts 187°
2026-04-21 18:26 53.02201 9.46781 23990 ft 232 kts 188°
2026-04-21 18:26 53.00658 9.45884 23986 ft 238 kts 189°
2026-04-21 18:26 52.99074 9.45060 23990 ft 236 kts 179°
2026-04-21 18:26 52.97475 9.44730 23983 ft 236 kts 175°
2026-04-21 18:27 52.95841 9.44379 23979 ft 240 kts 176°
2026-04-21 18:27 52.94158 9.44003 23982 ft 242 kts 176°
2026-04-21 18:27 52.92497 9.43648 23978 ft 244 kts 176°
2026-04-21 18:27 52.90785 9.43285 23979 ft 246 kts 176°
2026-04-21 18:28 52.89105 9.42926 23978 ft 247 kts 176°
2026-04-21 18:28 52.87396 9.42560 23983 ft 249 kts 177°
2026-04-21 18:28 52.85679 9.42193 23974 ft 250 kts 177°
2026-04-21 18:28 52.83953 9.41825 23974 ft 250 kts 177°
2026-04-21 18:29 52.82223 9.41456 23974 ft 251 kts 177°
2026-04-21 18:29 52.80496 9.41089 23973 ft 251 kts 177°
2026-04-21 18:29 52.78759 9.40719 23972 ft 251 kts 177°
2026-04-21 18:29 52.77027 9.40351 23968 ft 251 kts 177°
2026-04-21 18:30 52.75291 9.39982 23966 ft 252 kts 177°
2026-04-21 18:30 52.73554 9.39614 23964 ft 252 kts 177°
2026-04-21 18:30 52.71814 9.39244 23952 ft 252 kts 177°
2026-04-21 18:30 52.70074 9.38876 23948 ft 252 kts 177°
2026-04-21 18:31 52.68332 9.38507 23942 ft 252 kts 177°
2026-04-21 18:31 52.66591 9.38139 23939 ft 252 kts 177°
2026-04-21 18:31 52.64848 9.37771 23935 ft 253 kts 177°
2026-04-21 18:31 52.63101 9.37402 23962 ft 253 kts 177°
2026-04-21 18:32 52.61355 9.36956 23957 ft 255 kts 179°
2026-04-21 18:32 52.59607 9.36494 23956 ft 254 kts 179°
2026-04-21 18:32 52.57878 9.36050 24055 ft 249 kts 179°
2026-04-21 18:32 52.56183 9.35607 24160 ft 244 kts 178°
2026-04-21 18:33 52.54519 9.35169 24261 ft 241 kts 178°
2026-04-21 18:33 52.52867 9.34740 24293 ft 241 kts 178°
2026-04-21 18:33 52.51206 9.34308 24295 ft 242 kts 178°
2026-04-21 18:33 52.49535 9.33871 24296 ft 244 kts 178°
2026-04-21 18:34 52.47854 9.33430 24294 ft 245 kts 178°
2026-04-21 18:34 52.46170 9.32990 24292 ft 246 kts 179°
2026-04-21 18:34 52.44478 9.32549 24291 ft 247 kts 179°
2026-04-21 18:34 52.42777 9.32105 24291 ft 248 kts 179°
2026-04-21 18:35 52.41644 9.31810 24291 ft 249 kts 179°
2026-04-21 18:35 52.39346 9.31211 24309 ft 250 kts 179°
2026-04-21 18:35 52.37622 9.30762 24302 ft 251 kts 179°
2026-04-21 18:35 52.35895 9.30313 24301 ft 252 kts 179°
2026-04-21 18:36 52.34183 9.29867 24299 ft 252 kts 179°
2026-04-21 18:36 52.32446 9.29412 24297 ft 253 kts 179°
2026-04-21 18:36 52.30705 9.28954 24301 ft 254 kts 180°
2026-04-21 18:36 52.28963 9.28426 24302 ft 255 kts 181°
2026-04-21 18:37 52.27211 9.27936 24301 ft 255 kts 180°
2026-04-21 18:37 52.25452 9.27495 24307 ft 256 kts 179°
2026-04-21 18:37 52.23672 9.27045 24302 ft 256 kts 180°
2026-04-21 18:37 52.21937 9.26715 24282 ft 255 kts 176°
2026-04-21 18:38 52.20158 9.26392 24184 ft 259 kts 177°
2026-04-21 18:38 52.18345 9.26051 24006 ft 266 kts 178°
2026-04-21 18:38 52.16487 9.25709 23834 ft 271 kts 178°
2026-04-21 18:38 52.14601 9.25368 23669 ft 274 kts 178°
2026-04-21 18:39 52.12691 9.25019 23493 ft 277 kts 178°
2026-04-21 18:39 52.10770 9.24670 23321 ft 279 kts 179°
2026-04-21 18:39 52.08849 9.24318 23302 ft 276 kts 179°
2026-04-21 18:39 52.06952 9.23974 23300 ft 273 kts 178°
2026-04-21 18:40 52.05077 9.23618 23295 ft 272 kts 181°
2026-04-21 18:40 52.03214 9.23111 23292 ft 270 kts 181°
2026-04-21 18:40 52.01963 9.22787 23290 ft 269 kts 181°
2026-04-21 18:40 51.99532 9.22165 23285 ft 266 kts 181°
2026-04-21 18:41 51.97705 9.21689 23290 ft 265 kts 181°
2026-04-21 18:41 51.95883 9.21211 23286 ft 265 kts 181°
2026-04-21 18:41 51.94069 9.20738 23287 ft 264 kts 181°
2026-04-21 18:41 51.92254 9.20265 23297 ft 264 kts 181°
2026-04-21 18:42 51.90444 9.19793 23295 ft 263 kts 181°
2026-04-21 18:42 51.88636 9.19323 23291 ft 262 kts 181°
2026-04-21 18:42 51.86836 9.18957 23287 ft 261 kts 179°
2026-04-21 18:42 51.85041 9.18550 23288 ft 261 kts 180°
2026-04-21 18:43 51.83240 9.18141 23286 ft 261 kts 180°
2026-04-21 18:43 51.81440 9.17750 23283 ft 261 kts 179°
2026-04-21 18:43 51.79642 9.17362 23284 ft 261 kts 179°
2026-04-21 18:43 51.77846 9.16973 23284 ft 261 kts 180°
2026-04-21 18:44 51.76045 9.16581 23287 ft 261 kts 180°
2026-04-21 18:44 51.74249 9.16192 23287 ft 261 kts 180°
2026-04-21 18:44 51.72446 9.15801 23281 ft 261 kts 180°
2026-04-21 18:44 51.70646 9.15412 23282 ft 261 kts 180°
2026-04-21 18:45 51.68843 9.15022 23309 ft 261 kts 180°
2026-04-21 18:45 51.67038 9.14634 23290 ft 262 kts 180°
2026-04-21 18:45 51.65230 9.14241 23290 ft 262 kts 180°
2026-04-21 18:45 51.63424 9.13852 23281 ft 262 kts 180°
2026-04-21 18:46 51.61616 9.13462 23284 ft 262 kts 180°
2026-04-21 18:46 51.59814 9.13074 23283 ft 261 kts 180°
2026-04-21 18:46 51.58017 9.12689 23282 ft 260 kts 180°
2026-04-21 18:46 51.56225 9.12301 23279 ft 259 kts 180°
2026-04-21 18:47 51.54450 9.11920 23274 ft 258 kts 180°
2026-04-21 18:47 51.52671 9.11539 23272 ft 257 kts 180°
2026-04-21 18:47 51.50901 9.11159 23272 ft 257 kts 180°
2026-04-21 18:47 51.49114 9.10595 23270 ft 260 kts 185°
2026-04-21 18:48 51.47368 9.09988 23268 ft 260 kts 184°
2026-04-21 18:48 51.45621 9.09396 23288 ft 260 kts 184°
2026-04-21 18:48 51.43826 9.08789 23278 ft 260 kts 185°
2026-04-21 18:48 51.42077 9.08193 23279 ft 260 kts 185°
2026-04-21 18:49 51.40282 9.07582 23274 ft 261 kts 185°
2026-04-21 18:49 51.38509 9.06979 23273 ft 260 kts 185°
2026-04-21 18:49 51.37338 9.06581 23272 ft 260 kts 185°
2026-04-21 18:49 51.34991 9.05784 23271 ft 259 kts 185°
2026-04-21 18:50 51.33204 9.05171 23277 ft 260 kts 185°
2026-04-21 18:50 51.31455 9.04580 23278 ft 260 kts 185°
2026-04-21 18:50 51.29685 9.03993 23270 ft 260 kts 185°
2026-04-21 18:50 51.27916 9.03393 23274 ft 260 kts 185°
2026-04-21 18:51 51.26142 9.02788 23269 ft 260 kts 185°
2026-04-21 18:51 51.24370 9.02190 23270 ft 260 kts 185°
2026-04-21 18:51 51.22597 9.01591 23294 ft 260 kts 185°
2026-04-21 18:51 51.20827 9.01000 23270 ft 261 kts 186°
2026-04-21 18:52 51.19047 9.00394 23277 ft 261 kts 186°
2026-04-21 18:52 51.17273 8.99793 23274 ft 261 kts 186°
2026-04-21 18:52 51.15495 8.99199 23266 ft 261 kts 186°
2026-04-21 18:52 51.13717 8.98602 23268 ft 261 kts 186°
2026-04-21 18:53 51.11938 8.98004 23270 ft 261 kts 186°
2026-04-21 18:53 51.10152 8.97466 23268 ft 260 kts 183°
2026-04-21 18:53 51.08368 8.96959 23267 ft 260 kts 184°
2026-04-21 18:53 51.06585 8.96428 23269 ft 260 kts 184°
2026-04-21 18:54 51.04810 8.95816 23270 ft 261 kts 186°
2026-04-21 18:54 51.03032 8.95241 23264 ft 261 kts 185°
2026-04-21 18:54 51.01254 8.94672 23266 ft 261 kts 185°
2026-04-21 18:54 50.99475 8.94085 23271 ft 261 kts 186°
2026-04-21 18:55 50.98296 8.93696 23266 ft 262 kts 186°
2026-04-21 18:55 50.95904 8.92907 23266 ft 262 kts 186°
2026-04-21 18:55 50.94122 8.92317 23265 ft 262 kts 186°
2026-04-21 18:55 50.92337 8.91729 23266 ft 262 kts 186°
2026-04-21 18:56 50.90574 8.91150 23271 ft 262 kts 186°
2026-04-21 18:56 50.88769 8.90555 23268 ft 262 kts 186°
2026-04-21 18:56 50.87008 8.89978 23263 ft 262 kts 186°
2026-04-21 18:56 50.85222 8.89392 23266 ft 262 kts 186°
2026-04-21 18:57 50.83438 8.88806 23256 ft 262 kts 186°
2026-04-21 18:57 50.81654 8.88220 23250 ft 262 kts 186°
2026-04-21 18:57 50.79872 8.87597 23248 ft 262 kts 187°
2026-04-21 18:57 50.78093 8.86967 23250 ft 262 kts 187°
2026-04-21 18:58 50.76310 8.86348 23249 ft 262 kts 186°
2026-04-21 18:58 50.74531 8.85734 23248 ft 262 kts 186°
2026-04-21 18:58 50.72751 8.85118 23248 ft 262 kts 186°
2026-04-21 18:58 50.70968 8.84502 23246 ft 262 kts 187°
2026-04-21 18:59 50.69791 8.84094 23246 ft 262 kts 187°
2026-04-21 18:59 50.68012 8.83479 23246 ft 262 kts 186°
2026-04-21 18:59 50.66235 8.82866 23247 ft 262 kts 186°
2026-04-21 18:59 50.64454 8.82256 23246 ft 261 kts 185°
2026-04-21 19:00 50.62675 8.82121 23246 ft 253 kts 167°
2026-04-21 19:00 50.60942 8.82501 23253 ft 251 kts 165°
2026-04-21 19:00 50.59209 8.82867 23254 ft 252 kts 166°
2026-04-21 19:00 50.57475 8.83226 23256 ft 251 kts 166°
2026-04-21 19:01 50.55740 8.83592 23260 ft 252 kts 166°
2026-04-21 19:01 50.54002 8.83962 23271 ft 252 kts 166°
2026-04-21 19:01 50.52261 8.84332 23257 ft 253 kts 167°
2026-04-21 19:01 50.50513 8.84697 23257 ft 253 kts 167°
2026-04-21 19:02 50.48768 8.85064 23256 ft 253 kts 167°
2026-04-21 19:02 50.47019 8.85432 23258 ft 253 kts 167°
2026-04-21 19:02 50.45302 8.85794 23258 ft 254 kts 167°
2026-04-21 19:02 50.43522 8.86168 23256 ft 254 kts 167°
2026-04-21 19:03 50.41774 8.86535 23253 ft 254 kts 167°
2026-04-21 19:03 50.40022 8.86907 23250 ft 254 kts 167°
2026-04-21 19:03 50.38269 8.87271 23251 ft 254 kts 167°
2026-04-21 19:03 50.36520 8.87633 23253 ft 254 kts 167°
2026-04-21 19:04 50.34766 8.88002 23251 ft 254 kts 167°
2026-04-21 19:04 50.33017 8.88370 23250 ft 254 kts 167°
2026-04-21 19:04 50.31264 8.88737 23249 ft 254 kts 167°
2026-04-21 19:04 50.29512 8.89104 23247 ft 255 kts 168°
2026-04-21 19:05 50.27753 8.89470 23248 ft 255 kts 168°
2026-04-21 19:05 50.25992 8.89838 23241 ft 255 kts 168°
2026-04-21 19:05 50.24234 8.90210 23247 ft 255 kts 168°
2026-04-21 19:05 50.22468 8.90582 23245 ft 256 kts 168°
2026-04-21 19:06 50.20695 8.90872 23244 ft 257 kts 171°
2026-04-21 19:06 50.18936 8.91085 23244 ft 257 kts 171°
2026-04-21 19:06 50.17131 8.91324 23244 ft 257 kts 171°
2026-04-21 19:06 50.15375 8.91575 23244 ft 257 kts 171°
2026-04-21 19:07 50.13569 8.91831 23248 ft 257 kts 171°
2026-04-21 19:07 50.11812 8.92075 23248 ft 257 kts 171°
2026-04-21 19:07 50.10026 8.92325 23247 ft 257 kts 171°
2026-04-21 19:07 50.08248 8.92572 23247 ft 257 kts 171°
2026-04-21 19:08 50.06443 8.92826 23241 ft 258 kts 171°
2026-04-21 19:08 50.04680 8.93070 23244 ft 258 kts 171°
2026-04-21 19:08 50.02893 8.93318 23241 ft 258 kts 171°
2026-04-21 19:08 50.01102 8.93567 23238 ft 258 kts 171°
2026-04-21 19:09 49.99312 8.93817 23242 ft 258 kts 171°
2026-04-21 19:09 49.97522 8.94065 23238 ft 258 kts 171°
2026-04-21 19:09 49.95735 8.94328 23237 ft 258 kts 171°
2026-04-21 19:09 49.93949 8.94593 23237 ft 258 kts 171°
2026-04-21 19:10 49.92162 8.94846 23235 ft 258 kts 171°
2026-04-21 19:10 49.90373 8.95102 23233 ft 258 kts 171°
2026-04-21 19:10 49.88589 8.95372 23227 ft 258 kts 171°
2026-04-21 19:10 49.86802 8.95621 23228 ft 258 kts 172°
2026-04-21 19:11 49.85013 8.95855 23225 ft 258 kts 172°
2026-04-21 19:11 49.83224 8.96100 23224 ft 258 kts 173°
2026-04-21 19:11 49.81433 8.96347 23225 ft 259 kts 173°
2026-04-21 19:11 49.79637 8.96594 23221 ft 259 kts 173°
2026-04-21 19:12 49.77847 8.96840 23222 ft 259 kts 173°
2026-04-21 19:12 49.76047 8.97087 23222 ft 259 kts 173°
2026-04-21 19:12 49.74243 8.97334 23224 ft 260 kts 173°
2026-04-21 19:12 49.72446 8.97581 23224 ft 260 kts 173°
2026-04-21 19:13 49.70648 8.97827 23219 ft 260 kts 173°
2026-04-21 19:13 49.68847 8.98074 23219 ft 260 kts 173°
2026-04-21 19:13 49.67044 8.98321 23219 ft 260 kts 173°
2026-04-21 19:13 49.65244 8.98566 23220 ft 260 kts 173°
2026-04-21 19:14 49.63462 8.98808 23220 ft 260 kts 173°
2026-04-21 19:14 49.61636 8.99060 23217 ft 260 kts 174°
2026-04-21 19:14 49.59832 8.99305 23216 ft 261 kts 174°
2026-04-21 19:14 49.58047 8.99549 23224 ft 261 kts 174°
2026-04-21 19:15 49.56214 8.99798 23222 ft 261 kts 174°
2026-04-21 19:15 49.54406 9.00045 23217 ft 261 kts 174°
2026-04-21 19:15 49.52615 9.00288 23215 ft 261 kts 174°
2026-04-21 19:15 49.50801 9.00535 23213 ft 261 kts 174°
2026-04-21 19:16 49.48994 9.00780 23211 ft 261 kts 174°
2026-04-21 19:16 49.47178 9.01027 23212 ft 261 kts 174°
2026-04-21 19:16 49.45368 9.01272 23216 ft 261 kts 174°
2026-04-21 19:16 49.43559 9.01517 23205 ft 261 kts 174°
2026-04-21 19:17 49.39942 9.02007 23203 ft 261 kts 174°
2026-04-21 19:17 49.38131 9.02253 23204 ft 261 kts 175°
2026-04-21 19:17 49.36321 9.02496 23203 ft 262 kts 176°
2026-04-21 19:18 49.34501 9.02746 23195 ft 262 kts 174°
2026-04-21 19:18 49.32691 9.03079 23187 ft 263 kts 173°
2026-04-21 19:18 49.30873 9.03368 23192 ft 262 kts 175°
2026-04-21 19:18 49.29050 9.03586 23188 ft 262 kts 175°
2026-04-21 19:19 49.27230 9.03813 23188 ft 263 kts 175°
2026-04-21 19:19 49.25411 9.04063 23187 ft 262 kts 175°
2026-04-21 19:19 49.23594 9.04312 23188 ft 262 kts 175°
2026-04-21 19:19 49.21779 9.04555 23190 ft 262 kts 175°
2026-04-21 19:20 49.19962 9.04797 23186 ft 262 kts 175°
2026-04-21 19:20 49.18142 9.05041 23186 ft 262 kts 175°
2026-04-21 19:20 49.16327 9.05262 23188 ft 261 kts 179°
2026-04-21 19:20 49.14510 9.05409 23189 ft 262 kts 178°
2026-04-21 19:21 49.12691 9.05641 23193 ft 263 kts 176°
2026-04-21 19:21 49.10869 9.05914 23192 ft 264 kts 176°
2026-04-21 19:21 49.09041 9.06167 23194 ft 264 kts 177°
2026-04-21 19:21 49.07209 9.06406 23193 ft 264 kts 177°
2026-04-21 19:22 49.05379 9.06648 23194 ft 264 kts 177°
2026-04-21 19:22 49.03547 9.06893 23198 ft 265 kts 176°
2026-04-21 19:22 49.01708 9.07138 23195 ft 265 kts 176°
2026-04-21 19:22 48.99871 9.07383 23195 ft 265 kts 177°
2026-04-21 19:23 48.98033 9.07627 23195 ft 265 kts 176°
2026-04-21 19:23 48.96200 9.07871 23196 ft 265 kts 177°
2026-04-21 19:23 48.94363 9.08116 23187 ft 265 kts 178°
2026-04-21 19:23 48.92524 9.08360 23188 ft 265 kts 178°
2026-04-21 19:24 48.90680 9.08603 23184 ft 266 kts 178°
2026-04-21 19:24 48.88839 9.08848 23184 ft 266 kts 178°
2026-04-21 19:24 48.86997 9.09091 23192 ft 266 kts 178°
2026-04-21 19:24 48.85158 9.09335 23190 ft 266 kts 178°
2026-04-21 19:25 48.83314 9.09579 23187 ft 266 kts 178°
2026-04-21 19:25 48.81472 9.09822 23187 ft 266 kts 178°
2026-04-21 19:25 48.79657 9.10062 23186 ft 266 kts 178°
2026-04-21 19:25 48.77734 9.10315 23184 ft 266 kts 178°
2026-04-21 19:26 48.75932 9.10554 23184 ft 266 kts 178°
2026-04-21 19:26 48.74090 9.10806 23184 ft 266 kts 177°
2026-04-21 19:26 48.72245 9.11070 23182 ft 266 kts 178°
2026-04-21 19:26 48.70403 9.11336 23178 ft 266 kts 178°
2026-04-21 19:27 48.68560 9.11606 23185 ft 266 kts 178°
2026-04-21 19:27 48.66721 9.11876 23192 ft 266 kts 178°
2026-04-21 19:27 48.64880 9.12111 23192 ft 266 kts 179°
2026-04-21 19:27 48.63022 9.12337 22969 ft 274 kts 179°
2026-04-21 19:28 48.61093 9.12584 22579 ft 280 kts 178°
2026-04-21 19:28 48.59150 9.12852 22190 ft 281 kts 177°
2026-04-21 19:28 48.57197 9.13130 21753 ft 284 kts 177°
2026-04-21 19:28 48.55232 9.13414 21324 ft 285 kts 176°
2026-04-21 19:29 48.53247 9.13708 20869 ft 287 kts 176°
2026-04-21 19:29 48.51282 9.13999 20360 ft 289 kts 176°
2026-04-21 19:29 48.49241 9.14299 19803 ft 292 kts 176°
2026-04-21 19:29 48.47233 9.14594 19245 ft 294 kts 175°
2026-04-21 19:30 48.45193 9.14895 18687 ft 295 kts 175°
2026-04-21 19:30 48.43152 9.15196 18095 ft 294 kts 175°
2026-04-21 19:30 48.41140 9.15488 17484 ft 286 kts 175°
2026-04-21 19:30 48.39191 9.15775 16902 ft 277 kts 174°
2026-04-21 19:31 48.37300 9.16055 16361 ft 269 kts 174°
2026-04-21 19:31 48.35471 9.16324 16008 ft 261 kts 174°
2026-04-21 19:31 48.33691 9.16585 15613 ft 256 kts 174°
2026-04-21 19:31 48.31929 9.16842 15241 ft 253 kts 174°
2026-04-21 19:32 48.30180 9.17100 15181 ft 250 kts 174°
2026-04-21 19:32 48.28455 9.17353 15176 ft 246 kts 174°
2026-04-21 19:32 48.26762 9.17601 15177 ft 243 kts 175°
2026-04-21 19:32 48.25086 9.17844 15177 ft 241 kts 175°
2026-04-21 19:33 48.23981 9.18004 15172 ft 241 kts 175°
2026-04-21 19:33 48.21743 9.18331 15066 ft 244 kts 175°
2026-04-21 19:33 48.19997 9.18584 14632 ft 259 kts 174°
2026-04-21 19:33 48.18179 9.18846 14168 ft 266 kts 174°
2026-04-21 19:34 48.16320 9.19116 13686 ft 270 kts 174°
2026-04-21 19:34 48.14439 9.19388 13174 ft 273 kts 173°
2026-04-21 19:34 48.12546 9.19663 12675 ft 273 kts 173°
2026-04-21 19:34 48.10654 9.19938 12186 ft 273 kts 173°
2026-04-21 19:35 48.08770 9.20201 11702 ft 270 kts 173°
2026-04-21 19:35 48.05112 9.20736 11167 ft 251 kts 174°
2026-04-21 19:35 48.03425 9.20986 11157 ft 231 kts 174°
2026-04-21 19:36 48.01958 9.21197 11147 ft 200 kts 174°
2026-04-21 19:36 48.00634 9.21392 11148 ft 187 kts 174°
2026-04-21 19:36 47.99334 9.21579 10981 ft 191 kts 174°
2026-04-21 19:36 47.97968 9.21773 10729 ft 198 kts 174°
2026-04-21 19:37 47.96584 9.21970 10496 ft 201 kts 174°
2026-04-21 19:37 47.95183 9.22174 10215 ft 205 kts 174°
2026-04-21 19:37 47.93743 9.22381 9713 ft 215 kts 173°
2026-04-21 19:37 47.92230 9.22599 9201 ft 221 kts 173°
2026-04-21 19:38 47.90668 9.22819 8685 ft 224 kts 171°
2026-04-21 19:38 47.89138 9.23054 8211 ft 225 kts 172°
2026-04-21 19:38 47.88091 9.23202 8162 ft 222 kts 172°
2026-04-21 19:38 47.86087 9.23471 8158 ft 215 kts 171°
2026-04-21 19:39 47.84584 9.23548 8145 ft 214 kts 187°
2026-04-21 19:39 47.83147 9.23018 8144 ft 212 kts 194°
2026-04-21 19:39 47.81760 9.22462 8143 ft 207 kts 194°
2026-04-21 19:39 47.80388 9.21914 8142 ft 202 kts 193°
2026-04-21 19:40 47.79037 9.21369 8141 ft 200 kts 193°
2026-04-21 19:40 47.77724 9.20826 8132 ft 192 kts 194°
2026-04-21 19:40 47.76423 9.20296 7869 ft 199 kts 193°
2026-04-21 19:40 47.75055 9.19738 7557 ft 207 kts 194°
2026-04-21 19:41 47.73655 9.19123 7231 ft 212 kts 194°
2026-04-21 19:41 47.72224 9.18482 6857 ft 216 kts 194°
2026-04-21 19:41 47.70775 9.17843 6475 ft 218 kts 194°
2026-04-21 19:41 47.69338 9.17196 6090 ft 211 kts 193°
2026-04-21 19:42 47.68020 9.16573 5996 ft 183 kts 193°
2026-04-21 19:42 47.66868 9.16008 5995 ft 166 kts 193°
2026-04-21 19:42 47.65818 9.15479 5991 ft 154 kts 193°
2026-04-21 19:42 47.64833 9.14972 5991 ft 146 kts 194°
2026-04-21 19:43 47.63887 9.14497 5994 ft 143 kts 193°
2026-04-21 19:43 47.63262 9.14174 5999 ft 144 kts 193°
2026-04-21 19:43 47.62321 9.13673 6002 ft 143 kts 193°
2026-04-21 19:43 47.61385 9.13182 6003 ft 143 kts 194°
2026-04-21 19:44 47.60444 9.12693 5940 ft 147 kts 191°
2026-04-21 19:44 47.59464 9.12811 5750 ft 142 kts 142°
2026-04-21 19:44 47.58911 9.13953 5566 ft 139 kts 106°
2026-04-21 19:44 47.58613 9.15341 5402 ft 143 kts 105°
2026-04-21 19:45 47.58315 9.16754 5246 ft 145 kts 105°
2026-04-21 19:45 47.58023 9.18191 5073 ft 146 kts 105°
2026-04-21 19:45 47.57736 9.19621 5009 ft 142 kts 104°
2026-04-21 19:45 47.57542 9.21031 4985 ft 140 kts 95°
2026-04-21 19:46 47.57438 9.22511 4746 ft 149 kts 94°
2026-04-21 19:46 47.57359 9.24055 4510 ft 152 kts 83°
2026-04-21 19:46 47.57546 9.25605 4283 ft 154 kts 79°
2026-04-21 19:46 47.57878 9.27110 4055 ft 154 kts 64°
2026-04-21 19:47 47.58359 9.28483 4012 ft 145 kts 62°
2026-04-21 19:47 47.58834 9.29764 4002 ft 139 kts 62°
2026-04-21 19:47 47.59305 9.30995 3999 ft 135 kts 61°
2026-04-21 19:47 47.59775 9.32197 3998 ft 135 kts 62°
2026-04-21 19:48 47.60265 9.33464 4007 ft 148 kts 62°
2026-04-21 19:48 47.60803 9.34849 3846 ft 163 kts 61°
2026-04-21 19:48 47.61383 9.36344 3613 ft 168 kts 61°
2026-04-21 19:48 47.61961 9.37828 3360 ft 163 kts 60°
2026-04-21 19:49 47.62510 9.39250 3124 ft 156 kts 60°
2026-04-21 19:49 47.63037 9.40592 2901 ft 143 kts 60°
2026-04-21 19:49 47.63475 9.41721 2721 ft 110 kts 60°
2026-04-21 19:49 47.63851 9.42689 2569 ft 110 kts 59°
2026-04-21 19:50 47.64242 9.43711 2392 ft 114 kts 58°
2026-04-21 19:50 47.64629 9.44704 2224 ft 108 kts 57°
2026-04-21 19:50 47.64983 9.45616 2065 ft 99 kts 58°
2026-04-21 19:50 47.65320 9.46485 1935 ft 96 kts 57°
2026-04-21 19:51 47.65648 9.47324 1810 ft 93 kts 56°
2026-04-21 19:51 47.65966 9.48132 1677 ft 85 kts 56°
2026-04-21 19:51 47.66247 9.48865 1563 ft 87 kts 54°
2026-04-21 19:51 47.66541 9.49654 1460 ft 88 kts 53°
2026-04-21 19:52 47.66837 9.50391 1381 ft 79 kts 58°
2026-04-21 19:52 47.67052 9.50939 1370 ft 45 kts 56°
2026-04-21 19:52 47.67144 9.51178 1372 ft 11 kts 39°
2026-04-21 19:52 47.67194 9.51161 1372 ft 7 kts 318°
2026-04-21 19:53 47.67228 9.51117 1371 ft 6 kts 322°
2026-04-21 19:53 47.67238 9.51104 1371 ft 0 kts 315°
2026-04-21 19:53 47.67239 9.51103 1371 ft 1 kts 321°
2026-04-21 19:54 47.67279 9.51055 1372 ft 10 kts 321°
2026-04-21 19:54 47.67345 9.50980 1370 ft 11 kts 329°
2026-04-21 19:54 47.67371 9.50938 1370 ft 4 kts 222°
2026-04-21 19:54 47.67368 9.50905 1370 ft 3 kts 32°
2026-04-21 19:55 47.67369 9.50919 1370 ft 0 kts 134°